Regional Weather Roundup
Issued by NWS

Home | Current Version | Previous Version | Text Only | Print | Product List | Glossary Off
Versions: 1 2 3 4 5 6 7 8 9 10 11 12 13 14 15 16 17 18 19 20 21 22 23 24 25 26 27 28 29 30 31 32 33 34 35 36 37 38 39 40 41 42 43 44 45 46 47 48 49 50

778
ASUS44 KLIX 221601
RWRLA
LOUISIANA WEATHER ROUNDUP
NATIONAL WEATHER SERVICE NEW ORLEANS LA
1100 AM CDT WED OCT 22 2014

NOTE: "FAIR" INDICATES FEW OR NO CLOUDS BELOW 12,000 FEET WITH NO
      SIGNIFICANT WEATHER AND/OR OBSTRUCTIONS TO VISIBILITY.
      SKY/WX - SKY CONDITION AND SIGNIFICANT WEATHER.
      TMP - AIR TEMPERATURE.    DP   - DEWPOINT TEMPERATURE.
      RH  - RELATIVE HUMIDITY.  PRES - PRESSURE.
      HX  - HEAT INDEX.         WCI  - WIND CHILL INDEX.

*  THESE STATIONS ARE NOT NWS OR FAA STATIONS AND ARE NOT UNDER
   NWS QUALITY CONTROL.

LAZ040-048-061>063-065-066-069-221700-
SOUTHEAST LOUISIANA

CITY           SKY/WX    TMP DP  RH WIND       PRES   REMARKS
N.O. AUDUBON     N/A     79  56  45 MISG        N/A
N.O. INTL ARPT SUNNY     75  53  46 E14       30.10S
N.O. LAKEFRONT SUNNY     75  57  53 NE13      30.11R
N.O. DOWNTOWN* FAIR      75  52  43 NE5       30.10S
SLIDELL        SUNNY     73  53  49 VRB7      30.10S
BATON ROUGE    SUNNY     74  54  49 NE8       30.12R
BOOTHVILLE     SUNNY     76  64  66 NE9       30.09R
BELLE CHASSE   SUNNY     76  55  48 E14       30.09S
BOGALUSA*        N/A     73  54  49 E6        30.14S
NEW ROADS*     FAIR      74  55  51 NE6       30.13S
GONZALES*      FAIR      73  55  52 NE5       30.11S
HAMMOND*       NOT AVBL
HOUMA*         SUNNY     75  57  53 NE9       30.09S
PORT FOURCHON* SUNNY     75  64  69 NE15      30.11S

$$

LAZ041-044-053-054-221700-
SOUTHWEST LOUISIANA

CITY           SKY/WX    TMP DP  RH WIND       PRES   REMARKS
LAKE CHARLES   SUNNY     76  60  57 NE10      30.11S
LAFAYETTE      SUNNY     73  56  54 E7        30.11S
PATTERSON      SUNNY     75  61  60 NE13      30.12S
SALT POINT       N/A     76  61  59 VRB5      30.08S
NEW IBERIA     SUNNY     75  58  55 NE12      30.11S
CHENAULT AIRPK MOSUNNY   73  61  64 E8        30.12R

$$

LAZ027-028-221700-
CENTRAL LOUISIANA

CITY           SKY/WX    TMP DP  RH WIND       PRES   REMARKS
FORT POLK      SUNNY     73  58  57 NE9       30.14R
ALEXANDRIA INT SUNNY     73  56  54 E9        30.14R
ALEXANDRIA     SUNNY     72  57  59 E8        30.15R

$$

LAZ001-002-221700-
NORTHWEST LOUISIANA

CITY           SKY/WX    TMP DP  RH WIND       PRES   REMARKS
SHREVEPORT     SUNNY     73  51  46 E8        30.18R
BARKSDALE AFB  SUNNY     73  52  47 E8        30.19R
DTN SHREVEPORT SUNNY     71  51  49 E7        30.18R

$$

LAZ014-016-221700-
NORTHEAST LOUISIANA

CITY           SKY/WX    TMP DP  RH WIND       PRES   REMARKS
MONROE         SUNNY     71  53  52 VRB7      30.19R
TALLULAH       SUNNY     71  53  52 NE8       30.17S

$$




USA.gov is the U.S. government's official web portal to all federal, state and local government web resources and services.